Regional Weather Roundup
Issued by NWS

Home | Current Version | Previous Version | Graphics & Text | Print | Product List | Glossary On
Versions: 1 2 3 4 5 6 7 8 9 10 11 12 13 14 15 16 17 18 19 20 21 22 23 24 25 26 27 28 29 30 31 32 33 34 35 36 37 38 39 40 41 42 43 44 45 46 47 48 49 50
000
ASUS45 KCYS 171510
RWRWY

WYOMING REGIONAL WEATHER ROUNDUP
NATIONAL WEATHER SERVICE CHEYENNE WY
900 AM MDT FRI APR 17 2015

NOTE:  "FAIR" INDICATES FEW OR NO CLOUDS BELOW 12,000 FEET
WITH NO SIGNIFICANT WEATHER AND/OR OBSTRUCTIONS TO VISIBILITY.

WYZ001-171600-
YELLOWSTONE NATIONAL PARK

CITY           SKY/WX    TMP DP  RH WIND       PRES   REMARKS
LK YELLOWSTONE   N/A     26  21  81 E3        30.27S
W YELLOWSTONE  NOT AVBL

$$
WYZ002>013-054>058-071-098>099-171600-
NORTHERN WYOMING

CITY           SKY/WX    TMP DP  RH WIND       PRES   REMARKS
JACKSON        FAIR      36  23  60 N12       30.22F WCI  27
CODY           FAIR      39  30  70 N3        30.22F
GREYBULL       FAIR      38  29  70 SE6       30.23F WCI  33
WORLAND        FAIR      38  29  70 CALM      30.23F
SHERIDAN       FAIR      40  32  73 CALM      30.23S
BUFFALO        FAIR      48  29  47 N3        30.22S
GILLETTE       FAIR      45  30  55 N3        30.21F
HULETT         FAIR      46  34  61 NE5       30.23F
NEWCASTLE      PTSUNNY   45  34  65 CALM      30.19F

$$
WYZ014>020-022>026-101>103-171600-
CENTRAL WYOMING

CITY           SKY/WX    TMP DP  RH WIND       PRES   REMARKS
BIG PINEY      FAIR      35  27  72 NE7       30.17S WCI  29
PINEDALE       FAIR      37  27  65 W15       30.16F WCI  28
DUBOIS         FAIR      32  23  69 NW7       30.21F WCI  26
LANDER         FAIR      36  32  85 SE5       30.20S WCI  32
RIVERTON       FAIR      38  29  70 CALM      30.22R
CASPER         CLOUDY    38  30  73 N10       30.19F WCI  31
DOUGLAS        LGT RAIN  40  37  89 NW6       30.19F

$$
WYZ021-027>030-104>119-171600-
SOUTHERN WYOMING

CITY           SKY/WX    TMP DP  RH WIND       PRES   REMARKS
EVANSTON       CLOUDY    31  29  92 N8        30.17R FOG     WCI  23
KEMMERER       FAIR      34  28  80 NW5       30.16  WCI  30
FORT BRIDGER   LGT SNOW  32  32 100 S5        30.19S WCI  27
ROCK SPRINGS   CLOUDY    32  29  88 NE18G28   30.14S WCI  20
DIXON          FAIR      44  31  59 N21G28    30.04F
RAWLINS        LGT SNOW  34  32  92 N15       30.12F FOG     WCI  24
SARATOGA       CLOUDY    34  32  93 NW10      30.09F WCI  26
LARAMIE        LGT SNOW  31  30  96 E20       30.06F VSB 3/4 WCI  19
CHEYENNE       LGT SNOW  33  32  96 N16       30.06F VSB 1   WCI  23
TORRINGTON     LGT RAIN  42  39  89 NE22      30.09F FOG
PINE BLUFFS    LGT RAIN  41  41 100 NE14      30.06F

$$


USA.gov is the U.S. government's official web portal to all federal, state and local government web resources and services.